SL-14 DEB, 45336

Orbit data source: Space-Track

SL-14 DEB, 45336 is space debris in LEO originally from a launch on Thu, 15 Aug 1991 UTC launched from the Plesetsk Missile And Space Complex (PKMTR). Debris objects in space refer to the collection of defunct objects orbiting the Earth. Examples of debris include non-operational satellites, rocket bodies, and fragments generated from explosions, collisions, or faulty payload assembly.

Loading next visibility...
Identifier
45336, 1991-056CA
Orbit
LEO
Country
Flag of CISCIS
Related business
Manufacturer
Unknown
Mission
Spacecraft
Bus & Motor
Unknown
Mass
Unknown
Launch date (UTC)
1991-08-15 (34 years ago)
Launch vehicle
Unknown
Launch site
Plesetsk Missile And Space Complex (PKMTR)
Object type
Payload
Rocket body
Debris
Shape & HBR
Unknown
Radar Cross Section
Small (<0.1 m²)

Expand to show TLE details & history
Last TLE update: 15 hours ago

TLE from 15 hours ago
0 SL-14 DEB
1 45336U 91056CA  25260.11975053  .00001269  00000-0  26435-2 0  9998
2 45336  82.5781 308.4245 0047739 298.8937  60.7408 13.30803921269457
Epoch: 2025-09-17T02:52Z
TLE epoch observation values (Epoch: 2025-09-17T02:52:26.445Z)
Latitude
-0.00004°
Longitude
-90.98596°
Altitude
1,129.137 km
Speed
7.297 km/s
True Right ascension
20h 33m 41s
True Declination
0° 00' 00"
Sunlit
Object was in full shadow at epoch
Visualization orbit readout
Latitude
Unknown
Longitude
Unknown
Altitude
Unknown
Speed
Unknown
Apparent Right ascension
Unknown
Apparent Declination
Unknown
Sunlit
N/A
Visualization observer readout
Local Sidereal Time
10:59:45
Azimuth
Unknown
Elevation
Unknown
Doppler factor
Unknown
Orbital elements
Apogee altitude
1,176.852 km
Perigee altitude
1,105.061 km
Semi-major axis
7,519.094 km
Eccentricity
0.00477
Inclination
82.5781°
RAAN
308.4245°
Arg. of periapsis
298.8937°
True anomaly
61.21945°
Mean anomaly
60.7408°
Eccentric anomaly
60.97998°
Mean motion
3.32886 °/min
Orbital period
108.15 mins
BSTAR
0.0026435
Loading maneuver chart data...
Computing Atmospheric mass density...
Loading historical data...
Loading historical data...
Loading historical data...
Loading historical data...
Loading historical data...
Loading historical data...
Loading historical data...

Documentation

Showing up to 5 results
|